When you browse on this site, cookies collect data to enhance your experience and personalize the content and advertising you see.
Visit our Privacy Policy to learn more. By continuing to use the site, you agree to this use of cookies and data.
  • In Germany
  • List of Countries
  • For 7 days
  • Water Temperature
  • Satellite Maps
  • Weather Map
  • Weather Widgets
  • user-avatar
    Login

    Hourly Weather Rechytsa

    Today, 26 March, Tuesday

    Time Temperature Precipitation Wind Pressure Humidity
    00:00 +5°C° 0 mm 1 mps 744 mmHg 59%
    01:00 +5°C° 0 mm 1 mps 744 mmHg 61%
    02:00 +4°C° 0 mm 1 mps 744 mmHg 62%
    03:00 +3°C° 0 mm 2 mps 744 mmHg 64%
    04:00 +3°C° 0 mm 2 mps 744 mmHg 66%
    05:00 +3°C° 0 mm 2 mps 744 mmHg 67%
    06:00 +3°C° 0.4 mm 2 mps 744 mmHg 69%
    07:00 +2°C° 0.4 mm 3 mps 745 mmHg 71%
    08:00 +3°C° 0.4 mm 3 mps 745 mmHg 73%
    09:00 +3°C° 0.1 mm 4 mps 745 mmHg 71%
    10:00 +3°C° 0.1 mm 5 mps 746 mmHg 69%
    11:00 +3°C° 0.1 mm 6 mps 746 mmHg 67%
    12:00 +4°C° 0.1 mm 6 mps 746 mmHg 59%
    13:00 +4°C° 0.1 mm 6 mps 746 mmHg 51%
    14:00 +5°C° 0.1 mm 6 mps 746 mmHg 44%
    15:00 +5°C° 0 mm 5 mps 746 mmHg 43%
    16:00 +5°C° 0 mm 4 mps 746 mmHg 43%
    17:00 +5°C° 0 mm 3 mps 746 mmHg 43%
    18:00 +3°C° 0 mm 3 mps 746 mmHg 48%
    19:00 +3°C° 0 mm 2 mps 747 mmHg 53%
    20:00 +3°C° 0 mm 1 mps 747 mmHg 57%
    21:00 +3°C° 0 mm 1 mps 747 mmHg 58%
    22:00 +2°C° 0 mm 1 mps 747 mmHg 58%
    23:00 +2°C° 0 mm 1 mps 747 mmHg 59%

    Tomorrow, 27 March, Wednesday

    Time Temperature Precipitation Wind Pressure Humidity
    00:00 +2°C° 0 mm 1 mps 747 mmHg 60%
    01:00 +1°C° 0 mm 2 mps 747 mmHg 62%
    02:00 +1°C° 0 mm 2 mps 747 mmHg 63%
    03:00 +1°C° 0 mm 2 mps 747 mmHg 64%
    04:00 +1°C° 0 mm 2 mps 747 mmHg 65%
    05:00 +1°C° 0 mm 2 mps 747 mmHg 66%
    06:00 +1°C° 0 mm 2 mps 748 mmHg 64%
    07:00 +2°C° 0 mm 2 mps 749 mmHg 62%
    08:00 +2°C° 0 mm 2 mps 749 mmHg 60%
    09:00 +3°C° 0.1 mm 2 mps 750 mmHg 59%
    10:00 +3°C° 0.1 mm 3 mps 751 mmHg 57%
    11:00 +3°C° 0.1 mm 3 mps 751 mmHg 56%
    12:00 +3°C° 0.2 mm 3 mps 752 mmHg 59%
    13:00 +3°C° 0.2 mm 4 mps 752 mmHg 63%
    14:00 +3°C° 0.2 mm 4 mps 752 mmHg 66%
    15:00 +3°C° 0.2 mm 4 mps 753 mmHg 63%
    16:00 +3°C° 0.2 mm 4 mps 753 mmHg 60%
    17:00 +3°C° 0.2 mm 4 mps 753 mmHg 57%
    18:00 0°C° 0 mm 4 mps 754 mmHg 62%
    19:00 0°C° 0 mm 3 mps 754 mmHg 66%
    20:00 -1°C° 0 mm 3 mps 755 mmHg 71%
    21:00 -2°C° 0 mm 3 mps 755 mmHg 73%
    22:00 -2°C° 0 mm 3 mps 756 mmHg 75%
    23:00 -2°C° 0 mm 2 mps 756 mmHg 78%

    Day after tomorrow, 28 March, Thursday

    Time Temperature Precipitation Wind Pressure Humidity
    00:00 -2°C° 0 mm 2 mps 756 mmHg 78%
    01:00 -3°C° 0 mm 2 mps 757 mmHg 79%
    02:00 -3°C° 0 mm 2 mps 757 mmHg 79%
    03:00 -3°C° 0 mm 2 mps 757 mmHg 79%
    04:00 -3°C° 0 mm 2 mps 757 mmHg 79%
    05:00 -3°C° 0 mm 2 mps 758 mmHg 79%
    06:00 -2°C° 0 mm 2 mps 758 mmHg 73%
    07:00 -1°C° 0 mm 2 mps 759 mmHg 67%
    08:00 +1°C° 0 mm 2 mps 759 mmHg 62%
    09:00 +2°C° 0 mm 2 mps 759 mmHg 54%
    10:00 +3°C° 0 mm 2 mps 759 mmHg 46%
    11:00 +4°C° 0 mm 2 mps 759 mmHg 38%
    12:00 +5°C° 0 mm 2 mps 759 mmHg 36%
    13:00 +6°C° 0 mm 2 mps 759 mmHg 34%
    14:00 +6°C° 0 mm 2 mps 759 mmHg 33%
    15:00 +6°C° 0 mm 2 mps 759 mmHg 37%
    16:00 +6°C° 0 mm 2 mps 759 mmHg 42%
    17:00 +5°C° 0 mm 2 mps 759 mmHg 46%
    18:00 +4°C° 0 mm 2 mps 759 mmHg 52%
    19:00 +3°C° 0 mm 2 mps 759 mmHg 58%
    20:00 +1°C° 0 mm 2 mps 759 mmHg 64%
    21:00 +1°C° 0 mm 2 mps 759 mmHg 66%
    22:00 0°C° 0 mm 3 mps 759 mmHg 69%
    23:00 0°C° 0 mm 3 mps 759 mmHg 71%

    29 March, Friday

    Time Temperature Precipitation Wind Pressure Humidity
    00:00 0°C° 0 mm 3 mps 759 mmHg 70%
    01:00 +1°C° 0 mm 3 mps 759 mmHg 69%
    02:00 +1°C° 0 mm 3 mps 759 mmHg 68%
    03:00 +1°C° 0 mm 3 mps 758 mmHg 71%
    04:00 +1°C° 0 mm 3 mps 758 mmHg 74%
    05:00 +1°C° 0 mm 3 mps 757 mmHg 77%
    06:00 +1°C° 0 mm 4 mps 757 mmHg 76%
    07:00 +3°C° 0 mm 4 mps 757 mmHg 76%
    08:00 +2°C° 0 mm 5 mps 757 mmHg 75%
    09:00 +3°C° 0 mm 5 mps 757 mmHg 73%
    10:00 +5°C° 0 mm 5 mps 757 mmHg 71%
    11:00 +6°C° 0 mm 5 mps 756 mmHg 69%
    12:00 +7°C° 0 mm 5 mps 756 mmHg 68%
    13:00 +8°C° 0 mm 5 mps 756 mmHg 67%
    14:00 +10°C° 0 mm 4 mps 756 mmHg 66%
    15:00 +10°C° 0 mm 4 mps 756 mmHg 67%
    16:00 +10°C° 0 mm 4 mps 755 mmHg 68%
    17:00 +10°C° 0 mm 3 mps 755 mmHg 69%
    18:00 +8°C° 0 mm 3 mps 755 mmHg 76%
    19:00 +7°C° 0 mm 3 mps 755 mmHg 82%
    20:00 +5°C° 0 mm 3 mps 756 mmHg 89%
    21:00 +5°C° 0 mm 3 mps 755 mmHg 90%
    22:00 +4°C° 0 mm 3 mps 755 mmHg 91%
    23:00 +4°C° 0 mm 3 mps 755 mmHg 92%

    30 March, Saturday

    Time Temperature Precipitation Wind Pressure Humidity
    00:00 +4°C° 0 mm 3 mps 755 mmHg 93%
    01:00 +4°C° 0 mm 3 mps 754 mmHg 94%
    02:00 +4°C° 0 mm 4 mps 754 mmHg 95%
    03:00 +4°C° 0 mm 4 mps 754 mmHg 95%
    04:00 +4°C° 0 mm 4 mps 754 mmHg 96%
    05:00 +4°C° 0 mm 4 mps 754 mmHg 96%
    06:00 +3°C° 0 mm 5 mps 754 mmHg 94%
    07:00 +5°C° 0 mm 5 mps 753 mmHg 91%
    08:00 +5°C° 0 mm 5 mps 753 mmHg 89%
    09:00 +7°C° 0 mm 5 mps 753 mmHg 81%
    10:00 +8°C° 0 mm 5 mps 753 mmHg 74%
    11:00 +10°C° 0 mm 5 mps 753 mmHg 67%
    12:00 +12°C° 0 mm 5 mps 752 mmHg 62%
    13:00 +13°C° 0 mm 6 mps 752 mmHg 56%
    14:00 +15°C° 0 mm 6 mps 751 mmHg 51%
    15:00 +14°C° 0 mm 5 mps 751 mmHg 51%
    16:00 +14°C° 0 mm 5 mps 751 mmHg 52%
    17:00 +14°C° 0 mm 4 mps 750 mmHg 52%
    18:00 +12°C° 0 mm 4 mps 751 mmHg 58%
    19:00 +11°C° 0 mm 3 mps 751 mmHg 63%
    20:00 +9°C° 0 mm 3 mps 751 mmHg 69%
    21:00 +8°C° 0 mm 3 mps 751 mmHg 71%
    22:00 +8°C° 0 mm 3 mps 750 mmHg 73%
    23:00 +7°C° 0 mm 3 mps 750 mmHg 75%

    31 March, Sunday

    Time Temperature Precipitation Wind Pressure Humidity
    00:00 +7°C° 0 mm 2 mps 750 mmHg 77%
    01:00 +6°C° 0 mm 2 mps 750 mmHg 79%
    02:00 +6°C° 0 mm 2 mps 749 mmHg 82%
    03:00 +5°C° 0 mm 2 mps 749 mmHg 83%
    04:00 +5°C° 0 mm 2 mps 749 mmHg 85%
    05:00 +5°C° 0 mm 2 mps 748 mmHg 87%
    06:00 +5°C° 0 mm 3 mps 748 mmHg 84%
    07:00 +7°C° 0 mm 3 mps 748 mmHg 82%
    08:00 +8°C° 0 mm 4 mps 748 mmHg 79%
    09:00 +10°C° 0 mm 4 mps 748 mmHg 72%
    10:00 +11°C° 0 mm 4 mps 748 mmHg 65%
    11:00 +13°C° 0 mm 5 mps 747 mmHg 58%
    12:00 +11°C° 0.2 mm 4 mps 747 mmHg 63%
    13:00 +10°C° 0.2 mm 4 mps 747 mmHg 67%
    14:00 +8°C° 0.2 mm 4 mps 747 mmHg 71%
    15:00 +8°C° 0.1 mm 4 mps 747 mmHg 68%
    16:00 +7°C° 0.1 mm 4 mps 748 mmHg 65%
    17:00 +7°C° 0.1 mm 4 mps 748 mmHg 62%
    18:00 +6°C° 0 mm 4 mps 749 mmHg 60%
    19:00 +6°C° 0 mm 4 mps 750 mmHg 58%
    20:00 +5°C° 0 mm 4 mps 750 mmHg 57%
    21:00 +4°C° 0 mm 4 mps 751 mmHg 56%
    22:00 +3°C° 0 mm 4 mps 751 mmHg 54%
    23:00 +2°C° 0 mm 3 mps 752 mmHg 53%
    Show more